Home   Weather   Thiès   Past weeks
Flag for Senegal

Past Weather in Thiès, Senegal — Yesterday and Last 2 Weeks

Now
73 °F

Passing clouds.


Feels Like: 73 °F
Forecast: N/A
Wind: 9 mph from North

Location: Dakar / Yoff

Current Time: Jun 1, 2020 at 10:49:22 pm

Latest Report: Jun 1, 2020 at 10:00 pm


Visibility: N/A

Pressure: 30.01 "Hg

Humidity: 83%

Dew Point: 68 °F

Location of ThièsLocation

Past Weather in Thiès — Graph

°F

Thiès Temperature Yesterday

Maximum temperature yesterday: 79 °F (at 11:00 am)
Minimum temperature yesterday: 73 °F (at 6:00 am)
Average temperature yesterday: 76 °F

High & Low Weather Summary for the Past Weeks

 TemperatureHumidityPressure
High84 °F (May 27, 4:00 pm)100% (May 25, 8:00 pm)30.01 "Hg (May 25, 8:00 pm)
Low68 °F (May 24, 2:00 am)48% (May 30, 3:00 pm)29.77 "Hg (May 29, 5:00 pm)
Average75 °F81%29.92 "Hg
* Reported May 17 9:00 pm — Jun 1 9:00 pm, Thiès. Weather by CustomWeather, © 2020

Note: Actual official high and low records may vary slightly from our data, if they occured in-between our weather recording intervals... More about our weather records

Thiès Weather History for the Previous 24 Hours

Scroll right to see more
 ConditionsComfort  
Time TempWeatherWind HumidityBarometerVisibility
9:00 pm
Mon, Jun 1
73 °FPassing clouds.12 mph83%29.98 "HgN/A
8:00 pm73 °FPassing clouds.12 mph83%29.98 "HgN/A
7:00 pm73 °FPassing clouds.16 mph83%29.98 "HgN/A
6:00 pm75 °FScattered clouds.16 mph78%29.95 "HgN/A
5:00 pm77 °FPassing clouds.16 mph74%29.95 "HgN/A
4:00 pm77 °FPassing clouds.14 mph74%29.98 "HgN/A
3:00 pm79 °FPassing clouds.14 mph70%29.98 "HgN/A
2:00 pm79 °FPassing clouds.14 mph70%29.98 "HgN/A
1:00 pm77 °FPassing clouds.14 mph74%30.01 "HgN/A
12:00 pm77 °FSunny.12 mph74%29.98 "Hg10 mi
11:00 am77 °FSunny.12 mph74%30.01 "Hg10 mi
10:00 am75 °FSunny.7 mph78%30.01 "Hg10 mi
9:00 am75 °FSunny.7 mph78%30.01 "Hg10 mi
8:00 am72 °FPassing clouds.5 mph88%29.98 "HgN/A
7:00 am72 °FPassing clouds.2 mph88%29.98 "HgN/A
6:00 am72 °FPassing clouds.2 mph88%29.98 "HgN/A
5:00 am72 °FPassing clouds.2 mph88%29.98 "HgN/A
4:00 am72 °FPassing clouds.2 mph88%29.98 "HgN/A
3:00 am72 °FPassing clouds.2 mph88%29.98 "HgN/A
2:00 am73 °FPassing clouds.7 mph83%29.98 "HgN/A
1:00 am72 °FClear.22 mph88%29.98 "Hg10 mi
12:00 am73 °FClear.18 mph83%29.98 "Hg10 mi
11:00 pm
Sun, May 31
73 °FClear.20 mph83%30.01 "Hg10 mi
10:00 pm73 °FClear.20 mph83%30.01 "Hg10 mi
Weather by CustomWeather, © 2020

See weather overview

Advertising